Kahului, HI

12:40 AM HST on May 27, 2017 (GMT -1000)
Kahului

Weather History for PHOG - March, 2014

Change the Weather History Date:

Friday, March 7, 2014

  Actual Average Record
Temperature  
Mean Temperature 77 °F 72 °F  
Max Temperature 83 °F 81 °F 88 °F (2016)
Min Temperature 70 °F 64 °F 56 °F (1965)
Degree Days  
Heating Degree Days 0 0  
Month to date heating degree days 0 0  
Since 1 July heating degree days 0 0  
Cooling Degree Days 12 7  
Month to date cooling degree days 55 49  
Year to date cooling degree days 566 458  
Growing Degree Days 26 (Base 50)    
Moisture  
Dew Point 69 °F    
Average Humidity 80    
Maximum Humidity 97    
Minimum Humidity 62    
Precipitation  
Precipitation 0.44 in 0.08 in 1.46 in (1958)
Month to date precipitation 1.40 0.51  
Year to date precipitation 8.05 5.27  
Snow  
Snow 0.00 in - - ()
Month to date snowfall 0.0  
Since 1 July snowfall 0.0  
Snow Depth 0.00 in    
Sea Level Pressure  
Sea Level Pressure 29.98 in    
Wind  
Wind Speed 11 mph (SSW)    
Max Wind Speed 25 mph    
Max Gust Speed 30 mph    
Visibility 8 miles    
Events Rain    
T = Trace of Precipitation, MM = Missing Value Source: NWS Daily Summary

Daily Weather History Graph

Daily Weather History Graph

Search for Another Location

Airport or City:

Trip Planner

Search our weather history database for the weather conditions in past years. The results will help you decide how hot, cold, wet, or windy it might be!

Date:

Astronomy

Mar. 07, 2014 Rise Set
Actual Time 6:40 AM HST 6:32 PM HST
Civil Twilight 6:18 AM HST 6:54 PM HST
Nautical Twilight 5:53 AM HST 7:20 PM HST
Astronomical Twilight 5:27 AM HST 7:46 PM HST
Moon 11:28 AM HST (3/7) 12:03 AM HST (3/7)
Length of Visible Light 12h 36m
Length of Day
11h 51m
Waxing Crescent, 44% of the Moon is Illuminated
Mar 7
Waxing Crescent
Mar 8
First Quarter
Mar 16
Full
Mar 23
Last Quarter
Mar 30
New

Hourly Weather History & Observations

Time (HST) Temp. Heat Index Dew Point Humidity Pressure Visibility Wind Dir Wind Speed Gust Speed Precip Events Conditions
12:54 AM 73.9 °F - 70.0 °F 87% 29.97 in 10.0 mi South 13.8 mph - N/A   Mostly Cloudy
1:54 AM 72.0 °F - 69.1 °F 91% 29.95 in 10.0 mi South 11.5 mph - N/A   Scattered Clouds
2:54 AM 72.0 °F - 69.1 °F 91% 29.94 in 10.0 mi SSW 11.5 mph - N/A   Scattered Clouds
3:45 AM 73.4 °F - 69.8 °F 88% 29.92 in 10.0 mi SSW 4.6 mph - 0.00 in   Overcast
3:52 AM 73.4 °F - 69.8 °F 88% 29.92 in 10.0 mi SSW 4.6 mph - 0.00 in   Overcast
3:54 AM 73.0 °F - 70.0 °F 90% 29.94 in 10.0 mi SSW 3.5 mph - 0.00 in   Overcast
4:09 AM 73.4 °F - 69.8 °F 88% 29.92 in 10.0 mi Calm Calm - N/A   Overcast
4:40 AM 71.6 °F - 68.0 °F 88% 29.93 in 10.0 mi NW 11.5 mph 18.4 mph 0.00 in Rain Light Rain
4:54 AM 72.0 °F - 69.1 °F 91% 29.96 in 10.0 mi West 5.8 mph - 0.00 in Rain Light Rain
5:54 AM 71.1 °F - 68.0 °F 90% 29.98 in 8.0 mi Calm Calm - 0.05 in Rain Light Rain
6:24 AM 71.6 °F - 68.0 °F 88% 29.98 in 5.0 mi East 3.5 mph - 0.01 in Rain Rain
6:34 AM 71.6 °F - 69.8 °F 94% 29.98 in 5.0 mi Calm Calm - 0.05 in Rain Rain
6:54 AM 71.1 °F - 69.1 °F 93% 29.99 in 8.0 mi East 4.6 mph - 0.07 in Rain Light Rain
7:46 AM 71.6 °F - 69.8 °F 94% 30.00 in 10.0 mi SSW 5.8 mph - 0.01 in   Overcast
7:54 AM 72.0 °F - 70.0 °F 93% 30.02 in 8.0 mi Calm Calm - 0.01 in Rain Light Rain
8:17 AM 71.6 °F - 71.6 °F 100% 30.01 in 10.0 mi SSW 3.5 mph - 0.00 in   Overcast
8:54 AM 72.0 °F - 69.1 °F 91% 30.03 in 10.0 mi South 13.8 mph - 0.00 in   Mostly Cloudy
9:54 AM 75.9 °F - 68.0 °F 76% 30.02 in 10.0 mi South 17.3 mph - N/A   Mostly Cloudy
10:54 AM 79.0 °F - 68.0 °F 69% 30.02 in 10.0 mi SSW 18.4 mph - N/A   Mostly Cloudy
11:54 AM 81.0 °F 84.1 °F 69.1 °F 67% 29.99 in 10.0 mi South 24.2 mph 28.8 mph 0.00 in   Mostly Cloudy
12:54 PM 80.1 °F 82.9 °F 69.1 °F 69% 29.97 in 10.0 mi SSW 20.7 mph 29.9 mph N/A   Mostly Cloudy
1:54 PM 80.1 °F 82.9 °F 69.1 °F 69% 29.95 in 10.0 mi SSW 16.1 mph 25.3 mph N/A   Scattered Clouds
2:54 PM 81.0 °F 83.8 °F 68.0 °F 65% 29.94 in 10.0 mi South 18.4 mph - N/A   Scattered Clouds
3:54 PM 82.0 °F 84.9 °F 68.0 °F 62% 29.93 in 10.0 mi South 15.0 mph - N/A   Scattered Clouds
4:54 PM 81.0 °F 83.3 °F 66.9 °F 62% 29.94 in 10.0 mi South 12.7 mph - N/A   Clear
5:54 PM 78.1 °F - 68.0 °F 71% 29.96 in 10.0 mi South 9.2 mph - N/A   Overcast
6:44 PM 73.4 °F - 71.6 °F 94% 29.98 in 4.0 mi North 23.0 mph 27.6 mph 0.04 in Rain Heavy Rain
6:47 PM 73.4 °F - 71.6 °F 94% 29.98 in 1.0 mi North 25.3 mph - 0.11 in Rain Heavy Rain
6:54 PM 72.0 °F - 72.0 °F 100% 30.00 in 1.0 mi North 17.3 mph 25.3 mph 0.20 in Rain Heavy Rain
6:59 PM 71.6 °F - 71.6 °F 100% 29.99 in 6.0 mi North 19.6 mph 25.3 mph 0.04 in Rain Rain
7:06 PM 71.6 °F - 71.6 °F 100% 29.98 in 2.0 mi North 19.6 mph - 0.05 in Rain Rain
7:54 PM 72.0 °F - 70.0 °F 93% 30.01 in 2.0 mi North 15.0 mph - 0.07 in Rain Light Rain
8:01 PM 71.6 °F - 69.8 °F 94% 30.00 in 5.0 mi NNW 15.0 mph 21.9 mph 0.00 in   Overcast
8:54 PM 72.0 °F - 64.9 °F 78% 30.03 in 10.0 mi North 3.5 mph - 0.01 in   Overcast
9:54 PM 70.0 °F - 68.0 °F 93% 30.05 in 10.0 mi ESE 9.2 mph - 0.02 in Rain Light Rain
10:54 PM 70.0 °F - 66.0 °F 87% 30.04 in 10.0 mi ENE 3.5 mph - 0.00 in Rain Light Rain
11:54 PM 70.0 °F - 66.0 °F 87% 30.03 in 10.0 mi West 3.5 mph - 0.01 in Rain Light Rain